iso_date,epoch_date,Year,Hour,Min,DOY,POS_DOY,Lat,Lon,BP,Ts,Ta,has_bp,has_ts,has_ta,BuoyID,Buoy_Type,Buoy_Owner,Logistics,Hemisphere
2021-08-17T11:58:59Z,1629201540,2021,11,59,229.4993,229.4993,69.39211,-51.41971,-999.00,-999.00,-999.0,no,no,no,4434577,SPIT,USIABP,ICE-PPR<br>DiskoBay,North
2021-08-17T12:27:56Z,1629203276,2021,12,28,229.5194,229.5194,69.40637,-51.4589,-999.00,-999.00,-999.0,no,no,no,4434577,SPIT,USIABP,ICE-PPR<br>DiskoBay,North
2021-08-17T12:58:01Z,1629205082,2021,12,58,229.5403,229.5403,69.40311,-51.46542,-999.00,-999.00,-999.0,no,no,no,4434577,SPIT,USIABP,ICE-PPR<br>DiskoBay,North
2021-08-17T13:27:59Z,1629206879,2021,13,28,229.5611,229.5611,69.31698,-51.29831,-999.00,-999.00,-999.0,no,no,no,4434577,SPIT,USIABP,ICE-PPR<br>DiskoBay,North
2021-08-17T13:57:56Z,1629208676,2021,13,58,229.5819,229.5819,69.23241,-51.13504,-999.00,-999.00,-999.0,no,no,no,4434577,SPIT,USIABP,ICE-PPR<br>DiskoBay,North
2021-08-17T15:27:04Z,1629214024,2021,15,27,229.6438,229.6438,69.2338,-51.14051,-999.00,-999.00,-999.0,no,no,no,4434577,SPIT,USIABP,ICE-PPR<br>DiskoBay,North
2021-08-17T15:57:01Z,1629215821,2021,15,57,229.6646,229.6646,69.24267,-51.15364,-999.00,-999.00,-999.0,no,no,no,4434577,SPIT,USIABP,ICE-PPR<br>DiskoBay,North
2021-08-17T16:26:58Z,1629217619,2021,16,27,229.6854,229.6854,69.25288,-51.16119,-999.00,-999.00,-999.0,no,no,no,4434577,SPIT,USIABP,ICE-PPR<br>DiskoBay,North
2021-08-17T16:56:55Z,1629219416,2021,16,57,229.7062,229.7062,69.23045,-51.14994,-999.00,-999.00,-999.0,no,no,no,4434577,SPIT,USIABP,ICE-PPR<br>DiskoBay,North
2021-08-17T17:27:01Z,1629221221,2021,17,27,229.7271,229.7271,69.2372,-51.1532,-999.00,-999.00,-999.0,no,no,no,4434577,SPIT,USIABP,ICE-PPR<br>DiskoBay,North
2021-08-17T17:56:58Z,1629223019,2021,17,57,229.7479,229.7479,69.24651,-51.15414,-999.00,-999.00,-999.0,no,no,no,4434577,SPIT,USIABP,ICE-PPR<br>DiskoBay,North
2021-08-17T18:27:04Z,1629224824,2021,18,27,229.7688,229.7688,69.30338,-51.11368,-999.00,-999.00,-999.0,no,no,no,4434577,SPIT,USIABP,ICE-PPR<br>DiskoBay,North
2021-08-17T18:56:00Z,1629226561,2021,18,56,229.7889,229.7889,69.3681,-50.96021,-999.00,-999.00,-999.0,no,no,no,4434577,SPIT,USIABP,ICE-PPR<br>DiskoBay,North
2021-08-17T19:25:58Z,1629228358,2021,19,26,229.8097,229.8097,69.3559,-50.94838,-999.00,-999.00,-999.0,no,no,no,4434577,SPIT,USIABP,ICE-PPR<br>DiskoBay,North
2021-08-17T19:56:03Z,1629230164,2021,19,56,229.8306,229.8306,69.35634,-50.94864,-999.00,-999.00,-999.0,no,no,no,4434577,SPIT,USIABP,ICE-PPR<br>DiskoBay,North
2021-08-17T20:26:00Z,1629231961,2021,20,26,229.8514,229.8514,69.35589,-50.94842,-999.00,-999.00,-999.0,no,no,no,4434577,SPIT,USIABP,ICE-PPR<br>DiskoBay,North
2021-08-17T20:55:58Z,1629233758,2021,20,56,229.8722,229.8722,69.35589,-50.94859,-999.00,-999.00,-999.0,no,no,no,4434577,SPIT,USIABP,ICE-PPR<br>DiskoBay,North
2021-08-17T21:26:03Z,1629235564,2021,21,26,229.8931,229.8931,69.35538,-50.94971,-999.00,-999.00,-999.0,no,no,no,4434577,SPIT,USIABP,ICE-PPR<br>DiskoBay,North
2021-08-17T21:56:00Z,1629237361,2021,21,56,229.9139,229.9139,69.35551,-50.94977,-999.00,-999.00,-999.0,no,no,no,4434577,SPIT,USIABP,ICE-PPR<br>DiskoBay,North
2021-08-17T22:25:58Z,1629239158,2021,22,26,229.9347,229.9347,69.35569,-50.94864,-999.00,-999.00,-999.0,no,no,no,4434577,SPIT,USIABP,ICE-PPR<br>DiskoBay,North
2021-08-17T23:53:57Z,1629244437,2021,23,54,229.9958,229.9958,69.35664,-50.9516,-999.00,-999.00,-999.0,no,no,no,4434577,SPIT,USIABP,ICE-PPR<br>DiskoBay,North
2021-08-18T00:24:02Z,1629246243,2021,0,24,230.0167,230.0167,69.35668,-50.951,-999.00,-999.00,-999.0,no,no,no,4434577,SPIT,USIABP,ICE-PPR<br>DiskoBay,North
2021-08-18T00:54:00Z,1629248040,2021,0,54,230.0375,230.0375,69.35664,-50.9498,-999.00,-999.00,-999.0,no,no,no,4434577,SPIT,USIABP,ICE-PPR<br>DiskoBay,North
2021-08-18T01:54:02Z,1629251643,2021,1,54,230.0792,230.0792,69.35665,-50.95017,-999.00,-999.00,-999.0,no,no,no,4434577,SPIT,USIABP,ICE-PPR<br>DiskoBay,North
2021-08-18T02:24:00Z,1629253440,2021,2,24,230.1,230.1,69.35639,-50.95171,-999.00,-999.00,-999.0,no,no,no,4434577,SPIT,USIABP,ICE-PPR<br>DiskoBay,North
2021-08-18T02:53:57Z,1629255237,2021,2,54,230.1208,230.1208,69.35612,-50.95145,-999.00,-999.00,-999.0,no,no,no,4434577,SPIT,USIABP,ICE-PPR<br>DiskoBay,North
2021-08-18T03:24:02Z,1629257043,2021,3,24,230.1417,230.1417,69.35616,-50.95117,-999.00,-999.00,-999.0,no,no,no,4434577,SPIT,USIABP,ICE-PPR<br>DiskoBay,North
2021-08-18T03:54:00Z,1629258840,2021,3,54,230.1625,230.1625,69.3561,-50.95157,-999.00,-999.00,-999.0,no,no,no,4434577,SPIT,USIABP,ICE-PPR<br>DiskoBay,North
2021-08-18T04:23:57Z,1629260637,2021,4,24,230.1833,230.1833,69.35589,-50.95071,-999.00,-999.00,-999.0,no,no,no,4434577,SPIT,USIABP,ICE-PPR<br>DiskoBay,North
2021-08-18T04:53:02Z,1629262382,2021,4,53,230.2035,230.2035,69.35597,-50.94949,-999.00,-999.00,-999.0,no,no,no,4434577,SPIT,USIABP,ICE-PPR<br>DiskoBay,North
2021-08-18T05:22:59Z,1629264180,2021,5,23,230.2243,230.2243,69.35606,-50.94941,-999.00,-999.00,-999.0,no,no,no,4434577,SPIT,USIABP,ICE-PPR<br>DiskoBay,North
2021-08-18T05:52:56Z,1629265977,2021,5,53,230.2451,230.2451,69.35585,-50.9501,-999.00,-999.00,-999.0,no,no,no,4434577,SPIT,USIABP,ICE-PPR<br>DiskoBay,North
2021-08-18T06:23:02Z,1629267782,2021,6,23,230.266,230.266,69.35568,-50.95087,-999.00,-999.00,-999.0,no,no,no,4434577,SPIT,USIABP,ICE-PPR<br>DiskoBay,North
2021-08-18T06:51:59Z,1629269519,2021,6,52,230.2861,230.2861,69.35587,-50.95062,-999.00,-999.00,-999.0,no,no,no,4434577,SPIT,USIABP,ICE-PPR<br>DiskoBay,North
2021-08-18T07:21:56Z,1629271316,2021,7,22,230.3069,230.3069,69.35603,-50.95133,-999.00,-999.00,-999.0,no,no,no,4434577,SPIT,USIABP,ICE-PPR<br>DiskoBay,North
2021-08-18T07:52:01Z,1629273122,2021,7,52,230.3278,230.3278,69.3559,-50.9509,-999.00,-999.00,-999.0,no,no,no,4434577,SPIT,USIABP,ICE-PPR<br>DiskoBay,North
2021-08-18T11:20:58Z,1629285659,2021,11,21,230.4729,230.4729,69.80139,-51.4931,-999.00,-999.00,-999.0,no,no,no,4434577,SPIT,USIABP,ICE-PPR<br>DiskoBay,North
2021-08-18T11:51:04Z,1629287464,2021,11,51,230.4938,230.4938,69.80591,-51.49109,-999.00,-999.00,-999.0,no,no,no,4434577,SPIT,USIABP,ICE-PPR<br>DiskoBay,North
2021-08-18T12:20:00Z,1629289201,2021,12,20,230.5139,230.5139,69.82255,-51.50356,-999.00,-999.00,-999.0,no,no,no,4434577,SPIT,USIABP,ICE-PPR<br>DiskoBay,North
2021-08-18T12:49:58Z,1629290998,2021,12,50,230.5347,230.5347,69.8304,-51.50656,-999.00,-999.00,-999.0,no,no,no,4434577,SPIT,USIABP,ICE-PPR<br>DiskoBay,North
2021-08-18T13:20:03Z,1629292804,2021,13,20,230.5556,230.5556,69.85196,-51.57807,-999.00,-999.00,-999.0,no,no,no,4434577,SPIT,USIABP,ICE-PPR<br>DiskoBay,North
2021-08-18T13:50:00Z,1629294601,2021,13,50,230.5764,230.5764,69.87656,-51.58554,-999.00,-999.00,-999.0,no,no,no,4434577,SPIT,USIABP,ICE-PPR<br>DiskoBay,North
2021-08-18T14:18:57Z,1629296338,2021,14,19,230.5965,230.5965,69.93086,-51.59916,-999.00,-999.00,-999.0,no,no,no,4434577,SPIT,USIABP,ICE-PPR<br>DiskoBay,North
2021-08-18T14:49:03Z,1629298143,2021,14,49,230.6174,230.6174,69.94082,-51.64954,-999.00,-999.00,-999.0,no,no,no,4434577,SPIT,USIABP,ICE-PPR<br>DiskoBay,North
